When you browse on this site, cookies collect data to enhance your experience and personalize the content and advertising you see.
Visit our Privacy Policy to learn more. By continuing to use the site, you agree to this use of cookies and data.
  • In Switzerland
  • List of Countries
  • For 7 days
  • Water Temperature
  • Weather Map
  • Weather Widgets
  • user-avatar
    Login

    Hourly Weather Yulara

    Today, 3 June, Wednesday

    Time Temperature Precipitation Wind Pressure Humidity
    00:00 +10°C° 0 mm 4 mps 725 mmHg 55%
    01:00 +8°C° 0 mm 4 mps 725 mmHg 57%
    02:00 +7°C° 0 mm 4 mps 725 mmHg 59%
    03:00 +7°C° 0 mm 4 mps 725 mmHg 63%
    04:00 +7°C° 0 mm 4 mps 725 mmHg 64%
    05:00 +7°C° 0 mm 4 mps 725 mmHg 64%
    06:00 +7°C° 0 mm 4 mps 726 mmHg 65%
    07:00 +8°C° 0 mm 5 mps 726 mmHg 60%
    08:00 +10°C° 0 mm 6 mps 726 mmHg 55%
    09:00 +13°C° 0 mm 6 mps 727 mmHg 48%
    10:00 +15°C° 0 mm 6 mps 726 mmHg 43%
    11:00 +16°C° 0 mm 7 mps 726 mmHg 38%
    12:00 +18°C° 0 mm 7 mps 725 mmHg 33%
    13:00 +20°C° 0 mm 7 mps 725 mmHg 31%
    14:00 +20°C° 0 mm 6 mps 724 mmHg 29%
    15:00 +21°C° 0 mm 6 mps 724 mmHg 27%
    16:00 +19°C° 0 mm 5 mps 724 mmHg 31%
    17:00 +17°C° 0 mm 4 mps 724 mmHg 35%
    18:00 +14°C° 0 mm 3 mps 724 mmHg 40%
    19:00 +13°C° 0 mm 3 mps 725 mmHg 42%
    20:00 +12°C° 0 mm 4 mps 725 mmHg 45%
    21:00 +11°C° 0 mm 4 mps 725 mmHg 48%
    22:00 +10°C° 0 mm 4 mps 725 mmHg 52%
    23:00 +10°C° 0 mm 4 mps 725 mmHg 56%

    Tomorrow, 4 June, Thursday

    Time Temperature Precipitation Wind Pressure Humidity
    00:00 +8°C° 0 mm 4 mps 725 mmHg 59%
    01:00 +7°C° 0 mm 4 mps 725 mmHg 64%
    02:00 +7°C° 0 mm 4 mps 725 mmHg 69%
    03:00 +6°C° 0 mm 4 mps 724 mmHg 73%
    04:00 +6°C° 0 mm 4 mps 725 mmHg 75%
    05:00 +5°C° 0 mm 4 mps 725 mmHg 76%
    06:00 +5°C° 0 mm 4 mps 725 mmHg 78%
    07:00 +7°C° 0 mm 4 mps 725 mmHg 70%
    08:00 +8°C° 0 mm 5 mps 726 mmHg 62%
    09:00 +10°C° 0 mm 5 mps 726 mmHg 54%
    10:00 +13°C° 0 mm 6 mps 726 mmHg 47%
    11:00 +15°C° 0 mm 6 mps 725 mmHg 40%
    12:00 +17°C° 0 mm 6 mps 725 mmHg 34%
    13:00 +19°C° 0 mm 5 mps 724 mmHg 31%
    14:00 +20°C° 0 mm 5 mps 724 mmHg 28%
    15:00 +21°C° 0 mm 5 mps 723 mmHg 25%
    16:00 +19°C° 0 mm 4 mps 723 mmHg 29%
    17:00 +17°C° 0 mm 4 mps 723 mmHg 33%
    18:00 +13°C° 0 mm 4 mps 723 mmHg 36%
    19:00 +13°C° 0 mm 4 mps 724 mmHg 39%
    20:00 +12°C° 0 mm 4 mps 724 mmHg 42%
    21:00 +11°C° 0 mm 4 mps 724 mmHg 45%
    22:00 +10°C° 0 mm 4 mps 724 mmHg 49%
    23:00 +8°C° 0 mm 4 mps 724 mmHg 53%

    Day after tomorrow, 5 June, Friday

    Time Temperature Precipitation Wind Pressure Humidity
    00:00 +7°C° 0 mm 4 mps 724 mmHg 58%
    01:00 +7°C° 0 mm 4 mps 724 mmHg 62%
    02:00 +6°C° 0 mm 4 mps 723 mmHg 66%
    03:00 +6°C° 0 mm 4 mps 723 mmHg 71%
    04:00 +5°C° 0 mm 4 mps 724 mmHg 75%
    05:00 +5°C° 0 mm 3 mps 724 mmHg 79%
    06:00 +5°C° 0 mm 3 mps 724 mmHg 84%
    07:00 +6°C° 0 mm 4 mps 724 mmHg 77%
    08:00 +8°C° 0 mm 4 mps 725 mmHg 71%
    09:00 +10°C° 0 mm 5 mps 725 mmHg 65%
    10:00 +13°C° 0 mm 5 mps 725 mmHg 56%
    11:00 +15°C° 0 mm 5 mps 724 mmHg 47%
    12:00 +17°C° 0 mm 5 mps 724 mmHg 39%
    13:00 +19°C° 0 mm 5 mps 723 mmHg 35%
    14:00 +20°C° 0 mm 5 mps 723 mmHg 31%
    15:00 +21°C° 0 mm 4 mps 722 mmHg 28%
    16:00 +19°C° 0 mm 4 mps 722 mmHg 33%
    17:00 +17°C° 0 mm 4 mps 722 mmHg 37%
    18:00 +14°C° 0 mm 3 mps 722 mmHg 42%
    19:00 +13°C° 0 mm 3 mps 722 mmHg 44%
    20:00 +12°C° 0 mm 3 mps 723 mmHg 45%
    21:00 +11°C° 0 mm 4 mps 723 mmHg 47%
    22:00 +10°C° 0 mm 4 mps 723 mmHg 48%
    23:00 +8°C° 0 mm 4 mps 723 mmHg 50%

    6 June, Saturday

    Time Temperature Precipitation Wind Pressure Humidity
    00:00 +8°C° 0 mm 4 mps 723 mmHg 51%
    01:00 +7°C° 0 mm 4 mps 723 mmHg 54%
    02:00 +6°C° 0 mm 4 mps 722 mmHg 56%
    03:00 +6°C° 0 mm 4 mps 722 mmHg 59%
    04:00 +5°C° 0 mm 4 mps 722 mmHg 60%
    05:00 +5°C° 0 mm 3 mps 723 mmHg 62%
    06:00 +4°C° 0 mm 3 mps 723 mmHg 63%
    07:00 +6°C° 0 mm 4 mps 723 mmHg 57%
    08:00 +8°C° 0 mm 4 mps 723 mmHg 50%
    09:00 +11°C° 0 mm 4 mps 723 mmHg 43%
    10:00 +13°C° 0 mm 5 mps 723 mmHg 37%
    11:00 +16°C° 0 mm 5 mps 723 mmHg 31%
    12:00 +19°C° 0 mm 5 mps 723 mmHg 25%
    13:00 +20°C° 0 mm 5 mps 722 mmHg 23%
    14:00 +21°C° 0 mm 5 mps 722 mmHg 21%
    15:00 +22°C° 0 mm 5 mps 721 mmHg 19%
    16:00 +19°C° 0 mm 4 mps 721 mmHg 22%
    17:00 +17°C° 0 mm 4 mps 721 mmHg 25%
    18:00 +14°C° 0 mm 4 mps 721 mmHg 29%
    19:00 +13°C° 0 mm 4 mps 721 mmHg 31%
    20:00 +12°C° 0 mm 4 mps 722 mmHg 33%
    21:00 +11°C° 0 mm 4 mps 722 mmHg 36%
    22:00 +10°C° 0 mm 4 mps 722 mmHg 38%
    23:00 +8°C° 0 mm 4 mps 722 mmHg 41%

    7 June, Sunday

    Time Temperature Precipitation Wind Pressure Humidity
    00:00 +7°C° 0 mm 4 mps 722 mmHg 43%
    01:00 +7°C° 0 mm 4 mps 722 mmHg 44%
    02:00 +6°C° 0 mm 4 mps 722 mmHg 46%
    03:00 +5°C° 0 mm 4 mps 722 mmHg 47%
    04:00 +5°C° 0 mm 4 mps 722 mmHg 49%
    05:00 +5°C° 0 mm 4 mps 722 mmHg 51%
    06:00 +4°C° 0 mm 4 mps 722 mmHg 53%
    07:00 +6°C° 0 mm 4 mps 723 mmHg 48%
    08:00 +8°C° 0 mm 5 mps 723 mmHg 43%
    09:00 +10°C° 0 mm 6 mps 723 mmHg 39%
    10:00 +13°C° 0 mm 6 mps 723 mmHg 35%
    11:00 +15°C° 0 mm 5 mps 722 mmHg 30%
    12:00 +17°C° 0 mm 5 mps 722 mmHg 26%
    13:00 +19°C° 0 mm 5 mps 721 mmHg 24%
    14:00 +20°C° 0 mm 5 mps 721 mmHg 22%
    15:00 +21°C° 0 mm 5 mps 720 mmHg 20%
    16:00 +19°C° 0 mm 4 mps 720 mmHg 23%
    17:00 +17°C° 0 mm 4 mps 721 mmHg 27%
    18:00 +14°C° 0 mm 4 mps 721 mmHg 30%
    19:00 +13°C° 0 mm 4 mps 721 mmHg 32%
    20:00 +11°C° 0 mm 4 mps 721 mmHg 35%
    21:00 +10°C° 0 mm 4 mps 722 mmHg 37%
    22:00 +10°C° 0 mm 4 mps 722 mmHg 39%
    23:00 +8°C° 0 mm 4 mps 722 mmHg 42%

    8 June, Monday

    Time Temperature Precipitation Wind Pressure Humidity
    00:00 +7°C° 0 mm 4 mps 722 mmHg 44%
    01:00 +7°C° 0 mm 4 mps 722 mmHg 50%
    02:00 +6°C° 0 mm 4 mps 722 mmHg 55%
    03:00 +6°C° 0 mm 4 mps 721 mmHg 61%
    04:00 +6°C° 0 mm 4 mps 722 mmHg 65%
    05:00 +5°C° 0 mm 4 mps 722 mmHg 70%
    06:00 +5°C° 0 mm 4 mps 722 mmHg 74%
    07:00 +7°C° 0 mm 5 mps 723 mmHg 66%
    08:00 +9°C° 0 mm 5 mps 723 mmHg 58%
    09:00 +11°C° 0 mm 6 mps 723 mmHg 50%
    10:00 +14°C° 0 mm 6 mps 723 mmHg 43%
    11:00 +16°C° 0 mm 6 mps 723 mmHg 37%
    12:00 +20°C° 0 mm 6 mps 723 mmHg 30%
    13:00 +20°C° 0 mm 6 mps 722 mmHg 28%
    14:00 +21°C° 0 mm 5 mps 722 mmHg 26%
    15:00 +21°C° 0 mm 5 mps 721 mmHg 24%
    16:00 +19°C° 0 mm 4 mps 721 mmHg 27%
    17:00 +17°C° 0 mm 4 mps 721 mmHg 31%
    18:00 +14°C° 0 mm 4 mps 721 mmHg 34%
    19:00 +13°C° 0 mm 4 mps 722 mmHg 37%
    20:00 +12°C° 0 mm 5 mps 722 mmHg 41%
    21:00 +10°C° 0 mm 5 mps 723 mmHg 44%
    22:00 +10°C° 0 mm 5 mps 723 mmHg 47%
    23:00 +9°C° 0 mm 5 mps 723 mmHg 50%
    Show more